Terminal Aerodrome Forecast
Issued by NWS

Home | Current Version | Previous Version | Graphics & Text | Print | Product List | Glossary Off
Versions: 1 2 3 4 5 6 7 8 9 10 11 12 13 14 15 16 17 18 19 20 21 22 23 24 25 26 27 28 29 30 31 32 33 34

916
FTUS43 KDDC 090304 AAB
TAFHYS
TAF AMD
KHYS 090304Z 0903/0924 26006KT P6SM SKC
     FM091500 33012G22KT P6SM SKC
     FM092100 32010KT P6SM SKC=

USA.gov is the U.S. government's official web portal to all federal, state and local government web resources and services.